sat.trackr.live / text

‹ back to catalog

STARLINK-31942

NORAD 59899 · 2024-100Q

PAYLOAD ACTIVE UNKNOWN

§ Identity

Operator
Country
US
Launch date
2024-05-28
Launch site
AFETR
Launch vehicle
Mass (kg)
RCS (m²)

Purposes: comms

External: N2YO · Heavens-Above · Gunter

§ Orbital elements

Epoch: 2026-09-20T23:11:11.880672Z

Period
94.27 min
Inclination
43.0039°
Eccentricity
0.0001546
Mean motion
15.27568796 rev/d
Perigee alt
482.0 km
Apogee alt
484.1 km
Semi-major
6,861.2 km
B*
-2.6553e-5
RAAN
102.4216°
Arg perigee
270.7363°
Mean anomaly
89.3312°
Rev number
13,101

§ Raw data

STARLINK-319421 59899U 24100Q   26263.96610973 -.00000993  00000+0 -26553-4 0  99942 59899  43.0039 102.4216 0001546 270.7363  89.3312 15.27568796131019

JSON: /api/v1/satellites/59899 · /tle

For live sub-satellite position, see the globe view (requires WebGL).

§ Visibility from observer

Set your observer location to see the next 7 days of passes ≥ 10°. The values pass through the URL so the page stays shareable.

No JS? Fill the form by hand. The geolocation button needs JavaScript.